Weather in Redding

United States     40°35′06″N   122°23′33″W
В апреле 2022 года жителям России запретили посещать сайт meteo.paraplan.net по решению Генеральной прокуратуры. Аудитория сайта уменьшилась в 10 раз. Владельцы сайта не видят смысла в поддержке погодного сервера в таких условиях. Сайт будет закрыт в октябре.
temp.,
°C
wind,
m/s
gust,
m/s
humid.,
%
clouds,
%
prec.,
mm/h
press.,
hPa
HPBL,
m
4 october, tue
tue423:00+19nnw11410 0.0 101513
02:00+18nw115014 0.0 101515
05:00+16nnw115690 0.0 101514
08:00+17nw115434 0.0 101615
11:00+26se113014 0.0 1016554
14:00+31sse2121100 0.0 1013934
17:00+30s222189 0.0 1012840
20:00+22wnw22362 0.0 101314
5 october, wed
wed523:00+19nnw21421 0.0 101514
02:00+18nw22490 0.0 101519
05:00+17nw21550 0.0 101518
08:00+18nw11520 0.0 101620
11:00+28se11270 0.0 1015543
14:00+33s21180 0.0 1013954
17:00+32sse22170 0.0 10111078
20:00+23wnw22300 0.0 101315
6 october, thu
thu623:00+20nnw22354 0.0 101515
02:00+19nw21375 0.0 101615
05:00+18nw113936 0.0 101615
08:00+18nw11405 0.0 101715
11:00+28se112214 0.0 1017519
14:00+32s221680 0.0 10151032
17:00+32s2213100 0.0 10141057
20:00+23wnw222497 0.0 101516
7 october, fri
fri723:00+20nw22280 0.0 101715
02:00+18nw22320 0.0 101817
05:00+17nw21370 0.0 101817
08:00+18nw11340 0.0 101819
11:00+29ese11170 0.0 1017506
14:00+34s21110 0.0 10141011
17:00+33s2290 0.0 1012948
20:00+23nw22180 0.0 101417
8 october, sat
sat823:00+20nw22200 0.0 101614
02:00+19nw21240 0.0 101616
05:00+18nw21270 0.0 101615
08:00+18nw11270 0.0 101617
11:00+29se11140 0.0 1015493
14:00+33sse22120 0.0 10131114
17:00+32s22120 0.0 10111081
20:00+23nw22230 0.0 101315